Weather in Grigoryevskoye

Russia / Perm Krai     58°13′12″N   55°22′52″E
temp.,
°C
wind,
m/s
gust,
m/s
humid.,
%
clouds,
%
prec.,
mm/h
press.,
hPa
HPBL,
m
5 december, sun
sun523:000wsw4991100 2.8 1004808
02:00−1wsw3878100 0.0 1005609
05:00−3sw4986100 0.1 1006709
08:00−5sw3109130 0.1 1007512
11:00−6sw4119274 0.1 1009567
14:00−5w5118398 0.1 10101169
17:00−11w4117716 0.1 1014620
20:00−14w388612 0.0 1017482
6 december, mon
mon623:00−16wnw379148 0.0 1018375
02:00−17wnw259237 0.0 1020248
05:00−18nw249229 0.0 1022189
08:00−18nw139212 0.0 1022147
11:00−18nw249030 0.0 1024186
14:00−16nw238558 0.0 1025270
17:00−17nw25935 0.0 1027219
20:00−18nnw25935 0.0 1029193
7 december, tue
tue723:00−19nw13945 0.0 1030116
02:00−20wnw12955 0.0 103185
05:00−19wnw12895 0.0 103271
08:00−19w12895 0.0 103355
11:00−18w12865 0.0 103486
14:00−15wnw23855 0.0 1035178
17:00−17w11975 0.0 10369
20:00−18wsw01985 0.0 103710
8 december, wed
wed823:00−16sse1195100 0.0 103721
02:00−14se1390100 0.0 1036110
05:00−12se2684100 0.0 1035185
08:00−11se3881100 0.0 1034254
11:00−10se41194100 0.3 1033322
14:00−8se51593100 1.6 1029551
17:00−6sse51395100 3.4 1027603
20:00−5s41396100 3.4 1025581
9 december, thu
thu923:00−2ssw51395100 4.8 1025617
02:00−1ssw51295100 0.0 1025555
05:00−1ssw41195100 0.1 1026451
08:00−2ssw41195100 0.0 1027381
11:00−2ssw4119590 0.0 1028341
14:00−2s31094100 0.0 1029358
17:00−3s3995100 0.0 1029271
20:00−5sse2696100 0.0 1029122